Weather History for Springfield, MO

Change the Weather History Date:

Thursday, November 22, 2012

  Actual Average Record
Temperature  
Mean Temperature 56 °F 43 °F  
Max Temperature 65 °F 54 °F 76 °F (1900)
Min Temperature 47 °F 33 °F 6 °F (1898)
Degree Days  
Heating Degree Days 9 22  
Month to date heating degree days 335 379  
Since 1 July heating degree days 731 687  
Cooling Degree Days 0 0  
Month to date cooling degree days 1 0  
Year to date cooling degree days 1764 1387  
Growing Degree Days 7 (Base 50)    
Moisture  
Dew Point 43 °F    
Average Humidity 61    
Maximum Humidity 87    
Minimum Humidity 39    
Precipitation  
Precipitation 0.05 in 0.14 in 0.95 in (1899)
Month to date precipitation 1.00 3.12  
Year to date precipitation 29.81 41.43  
Snow  
Snow 0.00 in - - ()
Month to date snowfall 0.0  
Since 1 July snowfall 0.0  
Since 1 September snowfall 0.0  
Snow Depth 0.00 in    
Sea Level Pressure  
Sea Level Pressure 30.04 in    
Wind  
Wind Speed 14 mph (South)    
Max Wind Speed 24 mph    
Max Gust Speed 29 mph    
Visibility 10 miles    
Events Rain    
T = Trace of Precipitation, MM = Missing Value Source: NWS Daily Summary

Daily Weather History Graph

Daily Weather History Graph

Search for Another Location

Airport:

Trip Planner

Search our weather history database for the weather conditions in past years. The results will help you decide how hot, cold, wet, or windy it might be!

Date:

Astronomy

Nov. 22, 2012 Rise Set
Actual Time 7:00 AM CST 4:58 PM CST
Civil Twilight 6:32 AM CST 5:27 PM CST
Nautical Twilight 6:00 AM CST 5:59 PM CST
Astronomical Twilight 5:29 AM CST 6:30 PM CST
Moon 1:39 PM CST (11/22) 1:27 AM CST (11/22)
Length of Visible Light 10h 55m
Length of Day
9h 58m
Waxing Gibbous, 71% of the Moon is Illuminated
Nov 22
Waxing Gibbous
Nov 28
Full
Dec 6
Last Quarter
Dec 13
New
Dec 19
First Quarter

Hourly Weather History & Observations

Time (CST) Temp. Dew Point Humidity Pressure Visibility Wind Dir Wind Speed Gust Speed Precip Events Conditions
12:52 AM 48.0 °F 37.9 °F 68% 30.09 in 10.0 mi SSE 12.7 mph - N/A   Clear
1:52 AM 48.0 °F 37.9 °F 68% 30.07 in 10.0 mi SSE 13.8 mph - N/A   Clear
2:52 AM 48.9 °F 37.9 °F 66% 30.06 in 10.0 mi SSE 15.0 mph - N/A   Clear
3:52 AM 48.0 °F 37.9 °F 68% 30.05 in 10.0 mi SSE 13.8 mph - N/A   Clear
4:52 AM 48.0 °F 39.0 °F 71% 30.06 in 10.0 mi SSE 13.8 mph - N/A   Clear
5:52 AM 50.0 °F 39.9 °F 68% 30.05 in 10.0 mi SSE 15.0 mph - N/A   Clear
6:52 AM 51.1 °F 39.9 °F 66% 30.04 in 10.0 mi SSE 16.1 mph - N/A   Clear
7:52 AM 52.0 °F 39.9 °F 63% 30.06 in 10.0 mi SSE 15.0 mph - N/A   Clear
8:52 AM 55.9 °F 39.9 °F 55% 30.06 in 10.0 mi SSE 17.3 mph - N/A   Clear
9:52 AM 59.0 °F 42.1 °F 53% 30.05 in 10.0 mi South 18.4 mph 26.5 mph N/A   Clear
10:52 AM 61.0 °F 42.1 °F 50% 30.04 in 10.0 mi South 20.7 mph 26.5 mph N/A   Clear
11:52 AM 63.0 °F 44.1 °F 50% 30.01 in 10.0 mi South 18.4 mph 25.3 mph N/A   Clear
12:52 PM 64.0 °F 45.0 °F 50% 29.98 in 10.0 mi South 13.8 mph 25.3 mph N/A   Clear
1:52 PM 64.0 °F 45.0 °F 50% 29.96 in 10.0 mi South 13.8 mph - N/A   Clear
2:52 PM 64.9 °F 48.0 °F 54% 29.95 in 10.0 mi South 15.0 mph - N/A   Scattered Clouds
3:52 PM 64.9 °F 46.0 °F 50% 29.94 in 10.0 mi South 17.3 mph - N/A   Mostly Cloudy
4:52 PM 61.0 °F 48.9 °F 64% 29.96 in 10.0 mi South 11.5 mph - 0.00 in Rain Light Rain
5:52 PM 60.1 °F 48.0 °F 64% 30.01 in 10.0 mi Calm Calm - 0.00 in   Scattered Clouds
6:52 PM 57.0 °F 48.9 °F 74% 30.03 in 10.0 mi South 5.8 mph - N/A   Overcast
7:52 PM 59.0 °F 48.0 °F 67% 30.02 in 10.0 mi South 8.1 mph - N/A   Overcast
8:52 PM 57.9 °F 48.0 °F 70% 30.04 in 10.0 mi SSW 9.2 mph - N/A   Overcast
9:52 PM 55.9 °F 52.0 °F 87% 30.11 in 10.0 mi WNW 4.6 mph - 0.05 in Rain Light Rain
10:52 PM 54.0 °F 44.1 °F 69% 30.14 in 10.0 mi North 16.1 mph - 0.00 in   Overcast
11:52 PM 53.1 °F 41.0 °F 64% 30.19 in 10.0 mi North 19.6 mph - N/A   Overcast